Location: Auckland
(36.8670°S, 174.7670°E)
Time: 12:45:24
(UTC+13:00)

SL-16 R/B - Pass Details

Date: 24 January 2019
Orbit: 842 x 846 km, 71.0° (Epoch: 20 February)

Event Time Altitude Azimuth Distance (km) Brightness Sun altitude
Rises 22:36:42 0° 317° (NW) 3,399 5.3 -20.2°
Reaches altitude 10° 22:39:19 10° 308° (NW) 2,471 4.7 -20.6°
Maximum altitude 22:44:32 37° 242° (WSW) 1,306 3.7 -21.3°
Drops below altitude 10° 22:49:49 10° 174° (S) 2,494 5.2 -22.0°
Sets 22:52:29 0° 166° (SSE) 3,435 5.9 -22.3°
